Cozumel Airport, Mexico

8:27 AM EST on August 25, 2016 (GMT -0500)
Cozumel International

Weather History for MMCZ - January, 2013

Change the Weather History Date:

Thursday, January 31, 2013

  Actual Average Record
Temperature  
Mean Temperature 68 °F -  
Max Temperature 73 °F 82 °F 86 °F (1998)
Min Temperature 64 °F 69 °F 53 °F (2011)
Cooling Degree Days 4    
Growing Degree Days 18 (Base 50)    
Moisture  
Dew Point 61 °F    
Average Humidity 74    
Maximum Humidity 94    
Minimum Humidity 60    
Precipitation  
Precipitation 5.60 in - - ()
Sea Level Pressure  
Sea Level Pressure 30.07 in    
Wind  
Wind Speed 6 mph ()    
Max Wind Speed 14 mph    
Max Gust Speed -    
Visibility 6.6 miles    
Events Rain    
Averages and records for this station are not official NWS values.
T = Trace of Precipitation, MM = Missing Value Source: Averaged Metar Reports

Daily Weather History Graph

Daily Weather History Graph

Search for Another Location

Airport or City:

Trip Planner

Search our weather history database for the weather conditions in past years. The results will help you decide how hot, cold, wet, or windy it might be!

Date:

Astronomy

Jan. 31, 2013 Rise Set
Actual Time 6:24 AM CST 5:38 PM CST
Civil Twilight 6:01 AM CST 6:01 PM CST
Nautical Twilight 5:34 AM CST 6:28 PM CST
Astronomical Twilight 5:08 AM CST 6:54 PM CST
Moon 9:52 PM CST (1/31) 9:06 AM CST (1/31)
Length of Visible Light 12h 00m
Length of Day
11h 14m
Waning Gibbous, 79% of the Moon is Illuminated
Jan 31
Waning Gibbous
Feb 3
Last Quarter
Feb 10
New
Feb 17
First Quarter
Feb 25
Full

Hourly Weather History & Observations

Time (CST) Temp. Dew Point Humidity Pressure Visibility Wind Dir Wind Speed Gust Speed Precip Events Conditions
12:40 AM 66.2 °F 64.4 °F 94% 29.98 in 7.0 mi Calm Calm - N/A   Partly Cloudy
1:40 AM 66.2 °F 62.6 °F 88% 29.98 in 7.0 mi Calm Calm - N/A   Partly Cloudy
2:40 AM 64.4 °F 53.6 °F 68% 30.01 in 7.0 mi Calm Calm - N/A   Partly Cloudy
3:40 AM 64.4 °F 60.8 °F 88% 29.97 in 7.0 mi SE 3.5 mph - N/A   Partly Cloudy
4:40 AM 66.2 °F 64.4 °F 94% 29.99 in 7.0 mi WNW 5.8 mph - N/A   Mostly Cloudy
5:40 AM 71.6 °F 68.0 °F 88% 29.98 in 7.0 mi NW 10.4 mph - N/A   Mostly Cloudy
6:40 AM 71.6 °F 68.0 °F 88% 30.03 in 7.0 mi NNW 11.5 mph - N/A   Mostly Cloudy
7:40 AM 71.6 °F 68.0 °F 88% 30.07 in 7.0 mi NNW 13.8 mph - N/A   Mostly Cloudy
8:46 AM 73.4 °F 68.0 °F 83% 30.12 in 7.0 mi North 11.5 mph - N/A   Mostly Cloudy
9:50 AM 73.4 °F 68.0 °F 83% 30.11 in 7.0 mi NNE 5.8 mph - N/A   Overcast
10:44 AM 73.4 °F 68.0 °F 83% 30.11 in 7.0 mi NNE 9.2 mph - N/A   Mostly Cloudy
11:44 AM 73.4 °F 59.0 °F 61% 30.06 in 7.0 mi NNE 8.1 mph - N/A   Mostly Cloudy
12:42 PM 73.4 °F 59.0 °F 61% 30.07 in 7.0 mi NE 13.8 mph - N/A   Overcast
1:42 PM 73.4 °F 59.0 °F 61% 30.07 in 7.0 mi North 13.8 mph - N/A   Overcast
2:16 PM 71.6 °F 64.4 °F 78% 30.07 in 2.0 mi NNE 11.5 mph - N/A Rain Rain
2:48 PM 69.8 °F 57.2 °F 64% 30.11 in 4.0 mi NNE 9.2 mph - N/A Rain Light Rain
3:44 PM 69.8 °F 57.2 °F 64% 30.07 in 6.0 mi NNE 11.5 mph - N/A   Overcast
4:41 PM 69.8 °F 57.2 °F 64% 30.08 in 6.0 mi North 9.2 mph - N/A   Mostly Cloudy
5:52 PM 69.8 °F 60.8 °F 73% 30.06 in 7.0 mi NNE 8.1 mph - N/A   Mostly Cloudy
6:40 PM 69.8 °F 55.4 °F 60% 30.10 in 7.0 mi NE 8.1 mph - N/A   Partly Cloudy
7:46 PM 69.8 °F 57.2 °F 64% 30.12 in 7.0 mi ENE 6.9 mph - N/A   Scattered Clouds
8:40 PM 69.8 °F 59.0 °F 68% 30.14 in 7.0 mi NE 6.9 mph - N/A   Partly Cloudy
9:48 PM 71.6 °F 62.6 °F 73% 30.14 in 7.0 mi NE 6.9 mph - N/A   Partly Cloudy
10:46 PM 71.6 °F 59.0 °F 64% 30.13 in 7.0 mi NE 5.8 mph - N/A   Mostly Cloudy
11:52 PM 69.8 °F 55.4 °F 60% 30.08 in 7.0 mi NE 6.9 mph - N/A   Mostly Cloudy